Location: Dos Palmas
(32.4468°N, 116.8732°W)
Time: 14:36:44
(UTC+00:00)

SPOT 1/Viking Rocket - Pass Details

Date: 20 June 2021
Orbit: 778 x 793 km, 98.4° (Epoch: 26 July)

Event Time Altitude Azimuth Distance (km) Brightness Sun altitude
Exits shadow 05:35:01 34° 225° (SW) 1,256 4.5 -25.6°
Maximum altitude 05:36:21 41° 261° (W) 1,120 4.4 -25.8°
Drops below altitude 10° 05:41:12 10° 331° (NNW) 2,332 7.0 -26.3°
Sets 05:43:39 0° 339° (NNW) 3,263 8.0 -26.6°
